Tracking 25620 objects as of 18-May-2022
HD Live streaming from Space Station
objects crossing your sky now

STARLINK-1506

Track STARLINK-1506 now!
10-day predictions
STARLINK-1506 is classified as:


NORAD ID: 45747
Int'l Code: 2020-038T
Perigee: 550.4 km
Apogee: 558.1 km
Inclination: 53.1 °
Period: 95.6 minutes
Semi major axis: 6925 km
RCS: Unknown
Launch date: June 13, 2020
Source: United States (US)
Launch site: AIR FORCE EASTERN TEST RANGE (AFETR)
aabbcc
Your satellite tracking list
Your tracking list is empty




NASA's NSSDC Master Catalog

Two Line Element Set (TLE):
1 45747U 20038T   22138.32457832  .00005669  00000-0  39887-3 0  9994
2 45747  53.0563   2.7019 0005573  69.9950 290.1639 15.06427974106482
Source of the keplerian elements: AFSPC